| time (UTC) | temp C | wind direction | speed KPH | gust KPH | rain 1hr cm | rain 24hr cm | rain mn cm | humidity % | barometer mb |
| 20260510214021 | 39 | 252 | 3.2 | 4.8 | 0.00 | 0.00 | 0.00 | 8 | 1005.6 |
| 20260510213037 | 39 | 230 | 3.2 | 3.2 | 0.00 | 0.00 | 0.00 | 8 | 1005.8 |
| 20260510212023 | 39 | 268 | 3.2 | 3.2 | 0.00 | 0.00 | 0.00 | 8 | 1005.9 |
| 20260510211029 | 39 | 263 | 4.8 | 4.8 | 0.00 | 0.00 | 0.00 | 8 | 1006.0 |
| 20260510210055 | 39 | 243 | 3.2 | 3.2 | 0.00 | 0.00 | 0.00 | 8 | 1006.0 |
| 20260510205041 | 39 | 265 | 3.2 | 4.8 | 0.00 | 0.00 | 0.00 | 8 | 1006.3 |
| 20260510204032 | 39 | 233 | 4.8 | 4.8 | 0.00 | 0.00 | 0.00 | 8 | 1006.5 |
| 20260510203022 | 39 | 250 | 4.8 | 4.8 | 0.00 | 0.00 | 0.00 | 8 | 1006.6 |
| 20260510202026 | 39 | 281 | 3.2 | 3.2 | 0.00 | 0.00 | 0.00 | 8 | 1006.6 |
| 20260510201031 | 38 | 262 | 3.2 | 4.8 | 0.00 | 0.00 | 0.00 | 8 | |
| 20260510200029 | 38 | 253 | 3.2 | 3.2 | 0.00 | 0.00 | 0.00 | 8 | 1006.8 |
| 20260510195050 | 38 | 277 | 3.2 | 3.2 | 0.00 | 0.00 | 0.00 | 9 | 1006.9 |
| 20260510194057 | 38 | 287 | 3.2 | 3.2 | 0.00 | 0.00 | 0.00 | 9 | 1006.9 |
| 20260510193024 | 38 | 299 | 3.2 | 3.2 | 0.00 | 0.00 | 0.00 | 9 | 1006.9 |
| 20260510192030 | 37 | 288 | 3.2 | 3.2 | 0.00 | 0.00 | 0.00 | 9 | 1007.0 |
| 20260510191030 | 37 | 300 | 1.6 | 1.6 | 0.00 | 0.00 | 0.00 | 9 | |
| 20260510190029 | 37 | 269 | 1.6 | 3.2 | 0.00 | 0.00 | 0.00 | 9 | |
| 20260510185020 | 37 | 285 | 1.6 | 1.6 | 0.00 | 0.00 | 0.00 | 10 | 1007.3 |
| 20260510184025 | 37 | 323 | 1.6 | 3.2 | 0.00 | 0.00 | 0.00 | 10 | 1007.4 |
| 20260510183026 | 36 | 322 | 1.6 | 1.6 | 0.00 | 0.00 | 0.00 | 10 | 1007.5 |
| 20260510182040 | 36 | 276 | 3.2 | 3.2 | 0.00 | 0.00 | 0.00 | 11 | 1007.5 |
| 20260510181038 | 36 | 279 | 1.6 | 1.6 | 0.00 | 0.00 | 0.00 | 12 | 1007.6 |
| 20260510180038 | 35 | 275 | 3.2 | 3.2 | 0.00 | 0.00 | 0.00 | 12 | 1007.6 |
| 20260510175130 | 35 | 316 | 1.6 | 3.2 | 0.00 | 0.00 | 0.00 | 12 | 1007.6 |
| 20260510174023 | 34 | 212 | 1.6 | 3.2 | 0.00 | 0.00 | 0.00 | 12 | 1007.6 |
| 20260510173030 | 34 | 244 | 1.6 | 1.6 | 0.00 | 0.00 | 0.00 | 12 | 1007.6 |
| 20260510172020 | 33 | 223 | 1.6 | 3.2 | 0.00 | 0.00 | 0.00 | 13 | 1007.6 |
| 20260510171035 | 33 | 248 | 3.2 | 3.2 | 0.00 | 0.00 | 0.00 | 13 | 1007.7 |
| 20260510170032 | 33 | 214 | 1.6 | 1.6 | 0.00 | 0.00 | 0.00 | 13 | 1007.7 |
| 20260510165022 | 32 | 209 | 1.6 | 1.6 | 0.00 | 0.00 | 0.00 | 14 | 1007.7 |
| 20260510164027 | 32 | 201 | 1.6 | 1.6 | 0.00 | 0.00 | 0.00 | 14 | 1007.7 |
| 20260510163033 | 32 | 197 | 1.6 | 1.6 | 0.00 | 0.00 | 0.00 | 14 | 1007.7 |
| 20260510162033 | 31 | 222 | 1.6 | 1.6 | 0.00 | 0.00 | 0.00 | 15 | 1007.7 |
| 20260510161057 | 31 | 176 | 1.6 | 1.6 | 0.00 | 0.00 | 0.00 | 15 | 1007.7 |
| 20260510160035 | 30 | 193 | 1.6 | 1.6 | 0.00 | 0.00 | 0.00 | 16 | 1007.7 |
| 20260510155044 | 30 | 182 | 1.6 | 1.6 | 0.00 | 0.00 | 0.00 | 16 | 1007.7 |
| 20260510154034 | 30 | 226 | 1.6 | 1.6 | 0.00 | 0.00 | 0.00 | 17 | 1007.6 |
| 20260510153052 | 29 | 148 | 1.6 | 1.6 | 0.00 | 0.00 | 0.00 | 19 | 1007.7 |
| 20260510152029 | 28 | 170 | 0.0 | 1.6 | 0.00 | 0.00 | 0.00 | 19 | 1007.6 |
| 20260510151039 | 28 | 212 | 1.6 | 1.6 | 0.00 | 0.00 | 0.00 | 20 | 1007.6 |
| 20260510150024 | 27 | 191 | 0.0 | 1.6 | 0.00 | 0.00 | 0.00 | 20 | 1007.6 |
| 20260510145023 | 27 | 249 | 0.0 | 1.6 | 0.00 | 0.00 | 0.00 | 21 | 1007.6 |
| 20260510144020 | 27 | 223 | 0.0 | 1.6 | 0.00 | 0.00 | 0.00 | 22 | 1007.6 |
| 20260510143040 | 26 | 205 | 0.0 | 1.6 | 0.00 | 0.00 | 0.00 | 22 | 1007.6 |
| 20260510142045 | 26 | 0.0 | 0.0 | 0.00 | 0.00 | 0.00 | 22 | 1007.5 | |
| 20260510141031 | 25 | 0.0 | 0.0 | 0.00 | 0.00 | 0.00 | 23 | 1007.5 | |
| 20260510140023 | 25 | 0.0 | 0.0 | 0.00 | 0.00 | 0.00 | 23 | 1007.5 | |
| 20260510135022 | 24 | 0.0 | 0.0 | 0.00 | 0.00 | 0.00 | 24 | 1007.4 | |
| 20260510134037 | 23 | 0.0 | 0.0 | 0.00 | 0.00 | 0.00 | 24 | 1007.4 | |
| 20260510133042 | 23 | 0.0 | 0.0 | 0.00 | 0.00 | 0.00 | 25 | 1007.4 | |
| 20260510132029 | 22 | 0.0 | 0.0 | 0.00 | 0.00 | 0.00 | 25 | 1007.2 | |
| 20260510131043 | 23 | 0.0 | 0.0 | 0.00 | 0.00 | 0.00 | 23 | 1007.1 | |
| 20260510130027 | 23 | 0.0 | 0.0 | 0.00 | 0.00 | 0.00 | 22 | 1007.0 | |
| 20260510125026 | 23 | 0.0 | 0.0 | 0.00 | 0.00 | 0.00 | 21 | 1006.7 | |
| 20260510124039 | 23 | 68 | 0.0 | 0.0 | 0.00 | 0.00 | 0.00 | 22 | 1006.6 |
| 20260510123025 | 23 | 59 | 0.0 | 0.0 | 0.00 | 0.00 | 0.00 | 22 | 1006.6 |
| 20260510122035 | 23 | 349 | 0.0 | 0.0 | 0.00 | 0.00 | 0.00 | 22 | 1006.5 |
| 20260510121024 | 23 | 0.0 | 0.0 | 0.00 | 0.00 | 0.00 | 22 | 1006.3 | |
| 20260510120030 | 23 | 0.0 | 0.0 | 0.00 | 0.00 | 0.00 | 22 | 1006.1 | |
| 20260510115050 | 23 | 0.0 | 0.0 | 0.00 | 0.00 | 0.00 | 23 | 1006.1 | |
| 20260510114022 | 23 | 0.0 | 0.0 | 0.00 | 0.00 | 0.00 | 23 | 1006.1 | |
| 20260510113027 | 23 | 0.0 | 0.0 | 0.00 | 0.00 | 0.00 | 24 | 1006.1 | |
| 20260510112025 | 23 | 0.0 | 0.0 | 0.00 | 0.00 | 0.00 | 24 | 1006.1 | |
| 20260510111021 | 23 | 0.0 | 0.0 | 0.00 | 0.00 | 0.00 | 23 | 1006.2 | |
| 20260510110019 | 23 | 0.0 | 0.0 | 0.00 | 0.00 | 0.00 | 23 | 1006.3 | |
| 20260510105039 | 23 | 0.0 | 0.0 | 0.00 | 0.00 | 0.00 | 22 | 1006.2 | |
| 20260510104033 | 24 | 0.0 | 0.0 | 0.00 | 0.00 | 0.00 | 22 | 1006.2 | |
| 20260510103111 | 24 | 0.0 | 0.0 | 0.00 | 0.00 | 0.00 | 22 | 1006.3 | |
| 20260510102025 | 24 | 0.0 | 0.0 | 0.00 | 0.00 | 0.00 | 22 | 1006.2 | |
| 20260510101050 | 24 | 0.0 | 0.0 | 0.00 | 0.00 | 0.00 | 22 | 1006.0 | |
| 20260510100036 | 25 | 0.0 | 0.0 | 0.00 | 0.00 | 0.00 | 21 | 1006.0 | |
| 20260510095111 | 25 | 0.0 | 0.0 | 0.00 | 0.00 | 0.00 | 21 | 1005.9 | |
| 20260510094048 | 25 | 0.0 | 0.0 | 0.00 | 0.00 | 0.00 | 21 | 1005.9 | |
| 20260510093041 | 25 | 0.0 | 0.0 | 0.00 | 0.00 | 0.00 | 20 | 1005.7 | |
| 20260510092027 | 26 | 0.0 | 0.0 | 0.00 | 0.00 | 0.00 | 19 | 1005.7 | |
| 20260510091055 | 26 | 0.0 | 0.0 | 0.00 | 0.00 | 0.00 | 18 | 1005.6 | |
| 20260510090027 | 26 | 58 | 0.0 | 1.6 | 0.00 | 0.00 | 0.00 | 17 | 1005.6 |
| 20260510085037 | 27 | 6 | 1.6 | 1.6 | 0.00 | 0.00 | 0.00 | 18 | 1005.5 |
| 20260510084021 | 27 | 353 | 0.0 | 1.6 | 0.00 | 0.00 | 0.00 | 19 | 1005.4 |
| 20260510083025 | 27 | 360 | 1.6 | 1.6 | 0.00 | 0.00 | 0.00 | 18 | 1005.5 |
| 20260510082030 | 27 | 351 | 1.6 | 1.6 | 0.00 | 0.00 | 0.00 | 19 | 1005.5 |
| 20260510081024 | 27 | 30 | 0.0 | 1.6 | 0.00 | 0.00 | 0.00 | 19 | 1005.6 |
| 20260510080026 | 27 | 12 | 0.0 | 1.6 | 0.00 | 0.00 | 0.00 | 19 | 1005.7 |
| 20260510075025 | 27 | 52 | 0.0 | 1.6 | 0.00 | 0.00 | 0.00 | 17 | 1005.7 |
| 20260510074102 | 27 | 0.0 | 0.0 | 0.00 | 0.00 | 0.00 | 17 | 1005.8 | |
| 20260510073021 | 27 | 0.0 | 0.0 | 0.00 | 0.00 | 0.00 | 18 | 1005.8 | |
| 20260510072020 | 27 | 0.0 | 0.0 | 0.00 | 0.00 | 0.00 | 19 | 1005.8 | |
| 20260510071037 | 27 | 0.0 | 0.0 | 0.00 | 0.00 | 0.00 | 19 | 1005.8 | |
| 20260510070048 | 27 | 0.0 | 0.0 | 0.00 | 0.00 | 0.00 | 19 | 1005.8 | |
| 20260510065053 | 27 | 0.0 | 0.0 | 0.00 | 0.00 | 0.00 | 19 | ||
| 20260510064024 | 27 | 0.0 | 0.0 | 0.00 | 0.00 | 0.00 | 19 | 1005.6 | |
| 20260510063030 | 28 | 0.0 | 0.0 | 0.00 | 0.00 | 0.00 | 18 | 1005.6 | |
| 20260510062057 | 28 | 0.0 | 0.0 | 0.00 | 0.00 | 0.00 | 17 | 1005.5 | |
| 20260510061043 | 28 | 0.0 | 0.0 | 0.00 | 0.00 | 0.00 | 17 | 1005.4 | |
| 20260510060024 | 28 | 219 | 0.0 | 0.0 | 0.00 | 0.00 | 0.00 | 17 | 1005.3 |
| 20260510055041 | 28 | 257 | 0.0 | 1.6 | 0.00 | 0.00 | 0.00 | 17 | 1005.1 |
| 20260510054024 | 28 | 0.0 | 0.0 | 0.00 | 0.00 | 0.00 | 17 | 1004.8 | |
| 20260510053050 | 28 | 0.0 | 0.0 | 0.00 | 0.00 | 0.00 | 17 | 1004.7 | |
| 20260510052040 | 29 | 0.0 | 0.0 | 0.00 | 0.00 | 0.00 | 16 | 1004.6 | |
| 20260510051020 | 30 | 0.0 | 0.0 | 0.00 | 0.00 | 0.00 | 16 | 1004.5 | |
| 20260510050035 | 30 | 0.0 | 0.0 | 0.00 | 0.00 | 0.00 | 16 | 1004.4 | |
| 20260510045024 | 30 | 0.0 | 0.0 | 0.00 | 0.00 | 0.00 | 16 | 1004.3 | |
| 20260510044026 | 30 | 0.0 | 0.0 | 0.00 | 0.00 | 0.00 | 16 | 1004.2 | |
| 20260510043026 | 31 | 0.0 | 0.0 | 0.00 | 0.00 | 0.00 | 16 | 1004.1 | |
| 20260510042025 | 31 | 0.0 | 0.0 | 0.00 | 0.00 | 0.00 | 16 | 1004.0 | |
| 20260510041023 | 31 | 24 | 0.0 | 0.0 | 0.00 | 0.00 | 0.00 | 15 | 1003.9 |
| 20260510040021 | 31 | 25 | 0.0 | 1.6 | 0.00 | 0.00 | 0.00 | 15 | 1003.8 |
| 20260510035019 | 31 | 331 | 0.0 | 0.0 | 0.00 | 0.00 | 0.00 | 15 | 1003.7 |
| 20260510034038 | 31 | 30 | 0.0 | 0.0 | 0.00 | 0.00 | 0.00 | 15 | 1003.5 |
| 20260510033040 | 31 | 48 | 0.0 | 0.0 | 0.00 | 0.00 | 0.00 | 16 | 1003.4 |
| 20260510032030 | 32 | 0.0 | 0.0 | 0.00 | 0.00 | 0.00 | 16 | 1003.2 | |
| 20260510031044 | 32 | 0.0 | 0.0 | 0.00 | 0.00 | 0.00 | 16 | 1003.0 | |
| 20260510030039 | 32 | 0.0 | 0.0 | 0.00 | 0.00 | 0.00 | 18 | 1002.8 | |
| 20260510025050 | 32 | 0.0 | 0.0 | 0.00 | 0.00 | 0.00 | 17 | 1002.7 | |
| 20260510024027 | 33 | 0.0 | 0.0 | 0.00 | 0.00 | 0.00 | 16 | 1002.6 | |
| 20260510023025 | 33 | 23 | 0.0 | 0.0 | 0.00 | 0.00 | 0.00 | 11 | 1002.5 |
| 20260510022040 | 33 | 2 | 1.6 | 1.6 | 0.00 | 0.00 | 0.00 | 10 | 1002.5 |
| 20260510021022 | 34 | 358 | 1.6 | 1.6 | 0.00 | 0.00 | 0.00 | 10 | 1002.4 |
| 20260510020029 | 35 | 345 | 1.6 | 1.6 | 0.00 | 0.00 | 0.00 | 10 | 1002.4 |
| 20260510015034 | 35 | 6 | 1.6 | 1.6 | 0.00 | 0.00 | 0.00 | 10 | 1002.2 |
| 20260510014022 | 35 | 313 | 1.6 | 1.6 | 0.00 | 0.00 | 0.00 | 10 | 1002.2 |
| 20260510013035 | 35 | 334 | 1.6 | 1.6 | 0.00 | 0.00 | 0.00 | 9 | 1002.2 |
| 20260510012019 | 36 | 334 | 1.6 | 1.6 | 0.00 | 0.00 | 0.00 | 9 | 1002.2 |
| 20260510011046 | 36 | 244 | 1.6 | 1.6 | 0.00 | 0.00 | 0.00 | 9 | 1002.2 |
| 20260510010032 | 36 | 329 | 3.2 | 3.2 | 0.00 | 0.00 | 0.00 | 9 | 1002.2 |
| 20260510005026 | 36 | 276 | 1.6 | 1.6 | 0.00 | 0.00 | 0.00 | 9 | 1002.2 |
| 20260510004024 | 36 | 281 | 1.6 | 3.2 | 0.00 | 0.00 | 0.00 | 9 | 1002.2 |
| 20260510003022 | 36 | 286 | 3.2 | 3.2 | 0.00 | 0.00 | 0.00 | 9 | 1002.3 |
| 20260510002022 | 37 | 282 | 3.2 | 3.2 | 0.00 | 0.00 | 0.00 | 9 | 1002.3 |
| 20260510001028 | 37 | 281 | 3.2 | 3.2 | 0.00 | 0.00 | 0.00 | 9 | 1002.4 |
| 20260510000036 | 37 | 283 | 3.2 | 3.2 | 0.00 | 0.00 | 0.00 | 9 | 1002.5 |
| 20260509235031 | 37 | 309 | 4.8 | 4.8 | 0.00 | 0.00 | 0.00 | 9 | 1002.6 |
| 20260509234032 | 37 | 335 | 3.2 | 3.2 | 0.00 | 0.00 | 0.00 | 9 | 1002.6 |
| 20260509233019 | 37 | 307 | 3.2 | 3.2 | 0.00 | 0.00 | 0.00 | 9 | 1002.7 |
| 20260509232026 | 37 | 273 | 3.2 | 3.2 | 0.00 | 0.00 | 0.00 | 9 | 1002.8 |
| 20260509231031 | 37 | 318 | 4.8 | 4.8 | 0.00 | 0.00 | 0.00 | 9 | 1002.8 |
| 20260509230037 | 37 | 256 | 3.2 | 3.2 | 0.00 | 0.00 | 0.00 | 9 | 1003.0 |
| 20260509225045 | 37 | 277 | 3.2 | 3.2 | 0.00 | 0.00 | 0.00 | 9 | 1003.0 |
| 20260509224043 | 37 | 276 | 3.2 | 3.2 | 0.00 | 0.00 | 0.00 | 9 | 1003.3 |
| 20260509223022 | 38 | 285 | 4.8 | 4.8 | 0.00 | 0.00 | 0.00 | 9 | 1003.3 |
| 20260509222028 | 37 | 327 | 3.2 | 3.2 | 0.00 | 0.00 | 0.00 | 10 | 1003.4 |
| 20260509221025 | 38 | 16 | 3.2 | 3.2 | 0.00 | 0.00 | 0.00 | 10 | 1003.5 |
| 20260509220034 | 38 | 253 | 4.8 | 4.8 | 0.00 | 0.00 | 0.00 | 10 | 1003.7 |
| 20260509215033 | 37 | 301 | 3.2 | 3.2 | 0.00 | 0.00 | 0.00 | 10 | 1003.8 |